Showing default

DIRECTV 14, 40333

Orbit data source: Space-Track

DIRECTV 14, 40333 is a payload satellite owned by DirecTV (US) in GEO that was launched on Sat, 06 Dec 2014 UTC via an ARIANE 5ECA launch vehicle from the French Guiana (FRGUI). Payload-class satellites include a variety of spacecraft equipped with specific instruments for various scientific and technological missions. These include communications satellites like Starlink; space stations such as the ISS; scientific satellites like the Hubble; Earth observation satellites from companies like Planet Labs, Umbra, and HawkEye 360; GPS; miniature CubeSats for education and research; and military/defense satellites.

Loading next visibility...
Identifier
40333, 2014-078B
Orbit
GEO
Country
Flag of USUS
Related business
Manufacturer
SS/Loral (MDA)
Mission
Operational Commercial Communications
Bus & Motor
LS-1300, R-4D
Mass
6,300 kg wet, 4,500 kg dry
Launch date (UTC)
2014-12-06 (11 years ago)
Launch vehicle
ARIANE 5ECA
Launch site
French Guiana (FRGUI)
Object type
Payload
Rocket body
Debris
Shape & HBR
Box + 2 Pan, 16.3 m
Radar Cross Section
31.309 m², Large (>1 m²)

Expand to show TLE details & history
Last TLE update: 16 hours ago

TLE from 16 hours ago
0 DIRECTV 14
1 40333U 14078B   26061.56844590 -.00000142  00000-0  00000+0 0  9996
2 40333   0.0187 111.6213 0000432  61.3841  92.7230  1.00272089 40970
Epoch: 2026-03-02T13:38Z
TLE epoch observation values (Epoch: 2026-03-02T13:38:33.725Z)
Latitude
0.02532°
Longitude
-99.23031°
Altitude
35,786.091 km
Speed
3.075 km/s
True Right ascension
17h 43m 04s
True Declination
0° 01' 31"
Sunlit
Object was in daylight at epoch
Visualization orbit readout
Latitude
Unknown
Longitude
Unknown
Altitude
Unknown
Speed
Unknown
Apparent Right ascension
Unknown
Apparent Declination
Unknown
Sunlit
N/A
Visualization observer readout
Local Sidereal Time
08:54:46
Azimuth
Unknown
Elevation
Unknown
Doppler factor
Unknown
Orbital elements
Apogee altitude
35,789.402 km
Perigee altitude
35,785.759 km
Semi-major axis
42,165.717 km
Eccentricity
0.00004
Inclination
0.0187°
RAAN
111.6213°
Arg. of periapsis
61.3841°
True anomaly
92.72794°
Mean anomaly
92.723°
Eccentric anomaly
92.72547°
Mean motion
0.25067 °/min
Orbital period
1,436.15 mins
BSTAR
0
Loading maneuver chart data...
Computing Atmospheric mass density...
Loading historical data...
Loading historical data...
Loading historical data...
Loading historical data...
Loading historical data...
Loading historical data...
Loading historical data...
Other satellites on launch #78 in the year 2014 (2014-12-06 UTC)

Documentation

Showing up to 5 results
|